Date,TemperatureHighF,TemperatureAvgF,TemperatureLowF,DewpointHighF,DewpointAvgF,DewpointLowF,HumidityHigh,HumidityAvg,HumidityLow,PressureMaxIn,PressureMinIn,WindSpeedMaxMPH,WindSpeedAvgMPH,GustSpeedMaxMPH,PrecipitationSumIn
2013-3-1,30.0,23.7,17.1,12.7,8.3,2.9,59,51,42,30.22,30.01,6,2,10,0.00
2013-3-2,34.0,19.1,9.3,9.4,1.2,-5.9,65,47,24,30.25,30.12,3,1,7,0.00
2013-3-3,36.0,24.2,14.7,9.4,3.0,-3.7,49,40,25,30.13,29.84,8,4,14,0.00
2013-3-4,27.3,24.0,20.8,15.4,11.9,6.0,72,60,43,30.00,29.62,8,4,21,0.00
2013-3-5,29.3,24.9,20.8,18.7,15.9,11.5,73,68,59,30.25,29.78,6,2,11,0.00
2013-3-6,29.7,22.0,16.9,13.7,9.8,6.7,70,59,44,30.32,30.14,6,3,11,0.00
2013-3-7,36.1,21.6,13.6,16.6,9.2,4.5,67,59,42,30.27,30.12,6,3,12,0.02
2013-3-8,43.9,28.4,16.7,26.4,17.1,6.4,72,62,49,30.22,29.89,7,4,15,0.11
2013-3-9,36.5,34.5,32.7,30.8,28.8,22.8,81,79,66,30.04,29.63,7,3,15,0.81
2013-3-10,34.3,32.1,27.7,29.0,25.4,21.7,83,76,67,29.96,29.71,12,8,19,0.01
2013-3-11,29.3,26.0,19.2,21.7,16.1,7.7,78,66,52,29.83,29.52,8,6,16,0.01
2013-3-12,27.1,22.6,18.1,13.8,9.6,3.2,71,57,44,30.15,29.68,12,6,24,0.00
2013-3-13,30.7,19.5,9.7,11.1,5.7,-0.6,67,55,38,30.34,30.07,7,3,13,0.00
2013-3-14,47.1,30.7,22.3,27.0,18.3,10.9,73,60,41,30.19,29.97,6,2,11,0.07
2013-3-15,34.2,31.0,26.2,27.5,24.0,19.7,80,75,69,29.97,29.59,3,1,7,0.01
2013-3-16,27.1,20.5,11.5,19.3,7.6,-2.2,76,58,41,30.16,29.84,0,0,0,0.00
2013-3-17,30.7,18.1,6.3,14.3,1.0,-10.4,60,46,38,30.17,29.77,7,2,20,0.00
2013-3-18,29.7,20.3,9.5,23.8,9.1,-2.9,79,61,49,29.83,29.44,15,8,30,0.00
2013-3-19,21.2,10.7,3.9,-1.1,-7.9,-14.7,58,43,22,30.17,29.67,12,10,24,0.00
2013-3-20,18.7,10.4,4.1,-5.0,-10.5,-14.9,46,38,26,30.14,29.82,12,8,25,0.00
2013-3-21,28.2,15.3,4.6,1.6,-5.0,-10.4,50,40,23,30.07,29.86,5,2,10,0.00
2013-3-22,43.7,23.5,10.8,9.7,2.3,-4.4,54,41,20,30.12,29.89,3,2,7,0.00
2013-3-23,36.3,26.7,17.6,13.9,9.3,4.2,61,48,31,30.18,29.94,4,2,8,0.00
2013-3-24,34.0,27.9,23.2,18.1,15.5,13.2,70,60,44,30.10,29.79,7,4,11,0.00
2013-3-25,38.5,29.0,21.9,16.0,10.6,6.2,61,46,28,30.22,29.93,8,5,14,0.00
2013-3-26,37.8,27.4,20.7,18.0,12.8,9.4,66,55,40,30.33,30.07,6,4,11,0.00
2013-3-27,48.0,33.4,22.5,14.7,11.5,3.9,65,43,18,30.36,30.15,3,1,6,0.00
2013-3-28,46.9,35.0,25.5,22.8,16.7,9.5,62,47,33,30.34,30.16,3,1,8,0.00
2013-3-29,53.1,39.2,30.9,32.0,25.8,19.5,75,59,40,30.26,30.06,3,1,8,0.00
2013-3-30,51.8,41.3,33.1,38.2,32.6,27.9,83,71,58,30.06,29.83,6,3,13,0.06
2013-3-31,37.9,32.1,22.6,27.9,19.2,5.4,84,61,27,29.96,29.69,12,7,25,0.00